Probability
20 21 23 23 21 18 15 13 11 7 5 4 5 8 11 9 4 4 6 4 2 1 0 0 0 0 0 0 0 0 0 0 0 0 1 2 3 3
20 20 21 22 21 19 17 17 16 11 8 6 7 11 14 10 5 6 6 4 1 0 0 0 0 0 0 0 0 0 0 0 0 0 0 1 2 2
21 20 18 17 18 18 17 17 17 15 12 9 9 13 17 14 9 8 6 3 1 1 0 0 0 0 0 0 0 0 0 0 0 1 0 0 1 1
21 20 17 14 15 15 13 14 15 16 14 12 11 13 15 13 10 8 5 3 2 1 0 0 0 0 0 0 0 0 0 0 0 0 0 0 0 0
20 20 17 14 13 12 12 14 17 15 14 13 12 11 11 10 9 7 5 3 2 1 0 0 0 0 0 0 0 0 0 0 0 0 0 0 0 0
17 18 17 14 11 10 12 15 18 16 14 13 12 10 10 10 10 7 6 5 4 2 1 1 1 1 0 0 0 0 0 0 0 0 0 0 0 0
12 14 15 13 10 9 10 12 14 15 14 12 11 10 11 13 12 9 8 7 6 4 3 2 2 2 1 0 0 0 0 0 0 0 0 0 0 0
8 10 12 11 10 9 8 7 8 9 10 11 11 11 13 14 12 9 9 9 9 7 5 4 4 3 2 0 0 0 0 0 0 0 0 0 0 0
7 9 10 10 9 9 8 6 4 4 5 7 9 11 13 14 14 11 12 12 11 10 8 6 5 4 1 0 0 1 0 0 0 0 0 0 0 0
7 8 9 9 8 8 8 7 6 5 4 3 6 9 10 13 14 14 13 13 12 12 11 8 6 5 2 0 0 0 0 0 0 0 0 0 0 0
7 7 8 8 7 5 6 8 9 8 6 3 4 5 6 8 11 13 14 13 12 12 11 9 7 6 4 1 0 0 0 0 0 0 0 0 0 0
7 7 6 6 4 2 3 6 8 9 9 8 6 6 6 6 7 10 13 13 12 12 11 9 7 6 4 2 0 0 0 0 0 0 0 0 0 0
8 8 7 5 2 0 1 4 7 9 11 12 11 10 10 9 9 10 12 14 13 12 11 8 6 5 4 3 1 0 0 0 0 0 0 0 0 0
9 9 8 5 1 0 1 3 5 7 11 13 14 14 13 12 12 12 13 14 13 11 10 7 5 4 4 3 2 1 0 0 0 0 0 0 0 0
7 7 6 2 1 1 1 1 3 6 10 13 15 15 15 14 14 14 14 13 12 11 9 8 6 4 3 3 3 3 1 0 0 0 0 0 0 0
5 5 4 3 3 4 4 3 4 7 10 13 15 17 16 15 14 14 13 12 11 10 9 9 8 5 4 4 4 3 1 1 2 1 0 0 0 0
5 6 7 7 8 8 8 7 8 9 11 12 15 17 16 16 15 13 11 10 9 8 8 8 7 6 6 5 4 3 1 2 3 2 1 0 0 0
6 7 8 9 9 9 10 10 10 10 11 13 15 16 16 16 16 13 10 8 7 7 6 6 6 6 6 5 4 2 1 1 3 3 1 0 0 0
5 5 6 7 8 8 9 9 10 10 11 13 15 15 16 16 15 13 11 9 8 8 6 6 5 5 4 4 3 1 0 1 2 2 2 1 1 0
3 3 4 5 6 7 9 10 11 12 13 13 14 14 14 14 13 12 11 10 9 9 8 7 6 5 4 3 2 1 0 0 1 1 1 2 2 1
1 1 2 4 5 6 8 10 11 14 15 14 13 13 13 12 11 10 10 9 9 9 9 8 6 5 5 3 2 0 0 0 0 0 0 1 1 1
0 0 1 2 2 4 5 7 9 12 13 13 13 12 11 9 9 9 9 9 8 7 7 7 6 6 5 3 1 0 0 0 0 0 0 0 0 0
0 0 0 1 1 2 4 4 5 7 10 12 13 12 9 8 8 9 9 8 7 6 6 6 6 6 4 2 1 0 0 0 0 0 0 0 0 0
Wind_Speed
2 2 2 2 2 1 1 2 2 2 2 1 0 1 1 1 4 4 3 6 7 8 8 8 7 6 6 6 6 5 6 5 4 4 5 5 6 6
1 1 1 2 1 1 2 2 2 1 2 1 1 1 1 1 3 2 3 6 8 8 8 8 7 7 6 6 6 5 5 5 5 4 4 4 5 5
1 1 1 1 2 2 1 1 1 1 2 2 1 0 1 0 1 2 2 3 4 7 8 8 8 8 7 6 6 6 5 5 5 4 4 4 4 4
1 1 1 1 1 2 2 1 1 1 1 2 2 1 0 0 1 2 1 2 2 6 9 9 9 9 8 7 7 7 6 6 5 4 4 4 4 4
1 1 1 1 1 1 2 1 1 1 1 1 1 1 0 0 0 1 1 1 1 3 7 8 8 9 8 8 7 7 6 6 5 5 4 3 3 4
1 1 1 0 1 2 1 1 1 1 1 1 1 1 0 0 0 1 1 1 1 1 1 3 7 9 9 9 9 8 7 6 6 5 5 4 4 4
1 0 0 1 1 0 1 1 1 1 1 1 1 1 1 0 1 1 2 2 2 1 1 2 3 4 5 7 9 9 9 8 8 7 6 6 6 5
1 1 1 2 2 1 1 1 1 2 2 2 2 2 1 1 1 2 1 2 2 1 1 3 2 3 3 4 7 10 10 10 9 8 8 7 7 7
1 1 2 1 1 1 2 3 2 3 3 3 3 3 2 2 1 2 3 3 3 2 2 3 2 3 2 3 8 10 10 11 10 9 8 8 8 7
2 2 2 1 1 2 3 2 2 2 3 3 3 3 3 2 2 3 4 4 3 2 2 3 2 2 3 2 6 9 10 10 11 10 10 9 9 8
2 1 1 1 1 2 2 3 2 2 3 2 3 4 4 4 3 2 3 3 3 2 1 2 2 2 2 2 4 7 9 10 10 10 10 9 9 8
2 2 1 1 1 1 2 3 3 3 3 3 3 3 4 4 6 4 3 3 3 3 1 1 2 2 2 2 2 2 4 6 8 8 9 9 9 6
3 2 2 3 3 3 4 3 4 4 3 4 3 3 3 3 3 3 4 3 3 4 2 2 2 2 2 2 1 2 3 2 3 4 6 9 9 8
3 2 1 3 4 5 5 5 6 5 4 3 3 3 3 3 3 3 4 4 5 5 4 3 3 3 3 3 2 2 3 3 3 4 4 6 8 9
3 3 3 4 5 5 7 7 6 4 4 3 3 3 3 3 2 2 3 4 5 6 5 4 4 4 4 4 3 2 2 3 3 3 4 5 5 5
4 5 6 7 6 6 4 4 4 3 3 3 3 3 2 2 2 2 2 2 4 4 4 5 4 4 4 4 3 3 2 2 2 3 3 3 4 5
3 3 3 3 3 3 3 3 3 3 3 3 3 3 3 3 3 2 2 3 3 4 3 3 3 4 4 4 3 3 3 2 2 2 2 2 3 4
2 3 3 2 2 2 3 2 2 2 3 3 3 3 3 3 3 2 2 3 3 3 3 2 2 2 2 2 3 3 3 3 2 2 2 3 3 3
3 3 2 2 2 2 2 2 2 2 2 3 3 3 3 3 3 3 3 3 3 3 2 2 1 2 3 4 3 3 3 3 3 3 3 3 3 3
3 2 2 2 2 2 2 2 2 2 3 3 3 3 3 3 3 3 2 3 3 3 3 2 2 3 4 5 4 3 4 4 3 3 3 2 1 2
2 2 1 1 2 1 1 2 2 2 3 3 3 3 3 3 3 3 3 4 3 3 4 3 4 5 3 2 2 2 2 3 3 3 3 3 2 2
2 2 1 1 1 1 1 2 2 2 2 3 3 3 3 3 3 4 3 3 3 3 4 4 3 3 2 3 4 3 2 1 1 1 2 3 3 3
2 2 2 1 1 1 1 2 3 3 2 3 3 3 4 4 3 3 4 3 3 4 4 4 3 3 3 3 3 3 3 2 1 1 1 2 4 4
Wind_Direction
274 267 267 268 261 266 243 233 229 262 281 261 236 170 156 138 160 185 187 190 195 200 203 202 205 210 215 220 219 224 224 219 225 235 238 239 243 244
284 308 305 290 278 255 239 255 256 243 266 282 273 226 187 186 172 193 190 183 197 200 203 203 204 207 211 214 216 219 218 218 226 237 238 243 247 246
311 323 295 308 319 313 292 275 273 225 256 281 281 266 165 161 173 215 194 180 194 200 201 202 203 204 209 211 214 213 214 220 228 234 236 240 244 239
295 307 300 285 296 310 314 308 295 255 233 270 280 286 182 209 208 238 218 199 200 196 199 202 202 203 204 206 208 211 212 214 217 219 227 234 239 236
265 287 301 313 314 306 292 318 304 302 243 247 270 269 264 204 196 278 288 286 251 196 195 203 206 206 205 206 207 210 212 212 212 213 217 226 234 236
255 245 246 253 306 300 292 314 299 299 281 257 263 281 225 66 180 275 286 276 273 270 228 203 205 207 209 209 208 207 208 209 209 211 210 213 222 227
270 235 129 134 128 300 305 310 294 268 272 270 260 267 255 201 233 249 272 280 270 250 243 233 203 204 210 214 213 211 208 207 208 210 209 210 215 221
273 251 200 180 166 190 243 287 301 276 278 281 279 268 260 249 249 265 270 288 285 243 233 253 218 206 203 197 201 203 207 208 208 208 209 211 215 217
274 285 275 237 181 236 229 225 248 267 253 255 262 266 272 260 252 277 272 271 269 263 249 256 229 222 222 210 193 199 207 210 210 209 210 211 212 213
263 252 258 234 288 288 257 242 242 263 256 247 253 258 258 248 239 245 253 266 258 255 247 262 254 236 237 218 203 202 204 207 208 208 208 209 210 213
257 261 252 214 313 317 290 275 270 276 277 271 260 261 258 251 244 259 263 264 276 267 247 255 266 268 238 229 214 204 202 205 206 207 208 208 209 209
238 233 222 236 196 244 277 284 275 285 302 295 275 263 252 242 232 225 239 254 272 273 240 247 267 280 268 226 190 196 211 213 207 207 209 211 207 202
263 244 211 201 221 242 253 261 265 280 283 270 262 248 244 243 238 228 227 235 246 255 253 233 254 252 254 267 239 205 198 203 200 214 215 212 207 201
284 287 222 214 237 248 249 258 270 277 270 269 267 261 250 247 248 243 238 241 241 245 252 236 237 242 254 265 258 217 210 204 196 203 205 207 213 213
276 297 292 242 245 244 242 253 263 260 262 265 269 270 268 264 261 257 252 251 254 252 251 243 239 238 239 249 252 236 231 224 207 201 198 195 196 197
268 277 265 247 247 257 254 239 237 244 259 264 272 273 273 273 261 256 265 264 263 258 248 242 238 234 242 247 243 249 237 221 213 212 209 204 197 197
284 263 251 240 239 238 238 242 240 240 250 264 274 276 277 276 275 272 268 271 269 273 273 256 240 237 236 240 241 237 233 234 222 212 209 221 208 202
269 262 256 250 257 262 263 261 259 258 260 260 261 263 267 269 274 278 273 265 265 268 271 273 275 283 283 276 242 238 242 244 242 223 215 223 231 214
242 253 257 264 264 271 271 273 281 282 276 271 269 270 274 279 280 279 278 276 275 278 277 271 264 264 271 274 272 226 227 238 240 232 219 220 227 212
234 246 262 272 271 278 292 301 299 300 298 292 289 286 285 289 289 286 286 293 296 297 292 282 263 248 248 262 271 268 238 229 227 230 229 225 227 194
247 249 267 285 288 293 302 299 295 293 302 302 304 311 310 306 302 302 298 295 291 293 289 283 276 268 262 267 266 265 263 236 224 220 213 213 224 225
270 273 267 271 285 297 304 312 310 310 314 308 314 319 319 316 306 301 301 299 288 287 291 294 298 292 276 260 261 264 265 254 244 261 263 237 215 219
259 270 283 285 289 299 309 314 313 311 311 320 328 321 316 312 306 304 303 298 295 294 298 299 303 298 285 272 269 266 262 252 231 232 273 262 220 216